FENGYUN 4A (41882 NORAD) Tracking and Keplerian Element Data

This shows tracking and keplerian element data for the satellite.

Feedback or suggestion? Click here.




ElementValue
Catalog41882
NameFENGYUN 4A
Epoch Orbit720
Epoch Day319.98467303
Epoch Year2018
RAAN286.6887
Inclination0.1283
Eccentricity0.0003476
Argument of Perigee180.2873
Mean Anonmoly47.1182
Mean Motion1.00277789
Decay Rate-3.27E-06
L11 41882U 16077A 18319.98467303 -.00000327 00000-0 00000+0 0 9998
L22 41882 0.1283 286.6887 0003476 180.2873 47.1182 1.00277789 7206

Live tracking and technical data element details for FENGYUN 4A (NORAD 41882). FENGYUN 4A can be tracked NOW for your location showing map with azimuth and elevation plus other details from your city location.

Track the satellite on the map from your city or location and see movement details for azimuth, elevation, latitude, longitude, range, height, and movement on the map or in text.







IsCatalogInMostPopularTable: catalog: 41882, numindb: 115
Update: records affected: 1



GetName: 41882 FENGYUN 4A

Hit Count: updated at: Fri, 16 Nov 2018 12:35:01 GMT